Location: *
(58.7167°N, 26.1833°E)
Time: 22:35:14
(UTC+00:00)

MOS 1 Rocket - Pass Details

Date: 25 August 2019
Orbit: 616 x 829 km, 97.5° (Epoch: 14 September)

Event Time Altitude Azimuth Distance (km) Brightness Sun altitude
Rises 21:08:49 0° 14° (NNE) 3,330 7.8 -19.3°
Reaches altitude 10° 21:11:11 10° 9° (N) 2,415 7.0 -19.4°
Maximum altitude 21:16:24 51° 295° (WNW) 1,033 4.4 -19.6°
Enters shadow 21:20:47 15° 224° (SW) 2,115 5.5 -19.7°
